Regional Weather Roundup
Issued by NWS

Home | Current Version | Previous Version | Graphics & Text | Print | Product List | Glossary On
Versions: 1 2 3 4 5 6 7 8 9 10 11 12 13 14 15 16 17 18 19 20 21 22 23 24 25 26 27 28 29 30 31 32 33 34 35 36 37 38 39 40 41 42 43 44 45 46 47 48 49 50
971
ASUS44 KLIX 261401
RWRLA
LOUISIANA WEATHER ROUNDUP
NATIONAL WEATHER SERVICE NEW ORLEANS LA
800 AM CST MON JAN 26 2015

NOTE: "FAIR" INDICATES FEW OR NO CLOUDS BELOW 12,000 FEET WITH NO
      SIGNIFICANT WEATHER AND/OR OBSTRUCTIONS TO VISIBILITY.
      SKY/WX - SKY CONDITION AND SIGNIFICANT WEATHER.
      TMP - AIR TEMPERATURE.    DP   - DEWPOINT TEMPERATURE.
      RH  - RELATIVE HUMIDITY.  PRES - PRESSURE.
      HX  - HEAT INDEX.         WCI  - WIND CHILL INDEX.

*  THESE STATIONS ARE NOT NWS OR FAA STATIONS AND ARE NOT UNDER
   NWS QUALITY CONTROL.

LAZ040-048-061>063-065-066-069-261500-
SOUTHEAST LOUISIANA

CITY           SKY/WX    TMP DP  RH WIND       PRES   REMARKS
N.O. AUDUBON     N/A     47  38  72 MISG        N/A
N.O. INTL ARPT MOSUNNY   50  35  56 NW14G21   30.12R
N.O. LAKEFRONT SUNNY     52  37  56 NW17      30.12R
N.O. DOWNTOWN* FAIR      50  32  50 NW8       30.12R
SLIDELL        SUNNY     45  34  65 NW7       30.09R
BATON ROUGE    SUNNY     47  33  58 NW7       30.15R
BOOTHVILLE     SUNNY     50  37  61 N14       30.11R
BELLE CHASSE   MOSUNNY   51  34  52 CALM      30.11R
BOGALUSA*        N/A     46  35  67 NW5       30.11R
GALLIANO*      NOT AVBL
NEW ROADS*     NOT AVBL
GONZALES*      NOT AVBL
HAMMOND*       NOT AVBL
HOUMA*         NOT AVBL
PORT FOURCHON* SUNNY     52  37  58 NW8       30.16R

$$

LAZ041-044-053-054-261500-
SOUTHWEST LOUISIANA

CITY           SKY/WX    TMP DP  RH WIND       PRES   REMARKS
LAKE CHARLES   CLEAR     47  32  56 N16       30.17S
LAFAYETTE      SUNNY     47  34  60 N8        30.17R
PATTERSON      SUNNY     48  34  57 N8        30.15R
SALT POINT       N/A     47  36  65 N7        30.14R
NEW IBERIA     SUNNY     48  34  58 N12       30.17R
CHENAULT AIRPK NOT AVBL

$$

LAZ027-028-261500-
CENTRAL LOUISIANA

CITY           SKY/WX    TMP DP  RH WIND       PRES   REMARKS
FORT POLK      CLEAR     43  33  69 NW10      30.18R
ALEXANDRIA INT CLEAR     41  34  76 NW5       30.18R
ALEXANDRIA     CLEAR     42  33  70 NW3       30.18R

$$

LAZ001-002-261500-
NORTHWEST LOUISIANA

CITY           SKY/WX    TMP DP  RH WIND       PRES   REMARKS
SHREVEPORT     CLEAR     39  33  79 W5        30.20R
BARKSDALE AFB  CLEAR     39  32  77 NW6       30.21R WCI  35
DTN SHREVEPORT CLEAR     41  31  67 NW7       30.21R

$$

LAZ014-016-261500-
NORTHEAST LOUISIANA

CITY           SKY/WX    TMP DP  RH WIND       PRES   REMARKS
MONROE         CLEAR     41  33  73 NW7       30.19R
TALLULAH       CLOUDY    45  33  63 N12G18    30.16R

$$




USA.gov is the U.S. government's official web portal to all federal, state and local government web resources and services.